Weather in Tyukhtet

Russia / Krasnoyarsk Krai     56°32′09″N   89°18′57″E
temp.,
°C
wind,
m/s
gust,
m/s
humid.,
%
clouds,
%
prec.,
mm/h
press.,
hPa
HPBL,
m
23 april, fri
fri2301:00−4ne26915 0.1 1044106
04:00−5ne24935 0.0 104478
07:00−3ne268572 0.0 1045160
10:00+2ne377035 0.0 1045926
13:00+4ene47545 0.0 10431432
16:00+5ene47495 0.0 10421547
19:00+4ne37675 0.0 1042200
22:00−1ne310845 0.0 1042169
24 april, sat
sat2401:00−2ne3986100 0.0 1040171
04:00−2nne31088100 0.0 1038215
07:00−1nne41285100 0.0 1037398
10:00+4ne5966100 0.0 1034763
13:00+6ne4753100 0.0 10321767
16:00+6ne4559100 0.2 10301264
19:00+4ne3682100 0.9 1030282
22:000wsw009598 0.1 103110
25 april, sun
sun2501:000nnw1196100 0.1 103141
04:000ssw12100100 2.6 1030178
07:00+1w2499100 4.6 1031180
10:00+3wnw3586100 0.0 1031611
13:00+4wnw4683100 0.3 1030884
16:00+6wnw366291 0.3 10291511
19:00+5w247788 0.3 103065
22:000wnw22925 0.0 103119
26 april, mon
mon2601:00−1wsw229569 0.0 103119
04:00−1w22905 0.0 103017
07:00+1wsw128448 0.0 103174
10:00+6wsw22675 0.0 1030621
13:00+8wsw2357100 0.1 10291580
16:00+9ssw1354100 0.0 10281153
19:00+7se2567100 0.0 1027172
22:00+4se3777100 0.0 1026134
27 april, tue
tue2701:00+3sse388370 0.0 1024172
04:00+3sse378397 0.0 1021126
07:00+5sse51272100 0.0 1018327
10:00+3ssw41197100 3.4 1017676
13:00+10wsw71058100 4.7 10151794
16:00+10wnw51157100 1.7 10171924
19:00+8w4963100 2.5 1018710
22:00+5wsw358198 0.1 102089